Location: Bonaustraße
(48.4603°N, 11.9280°E)
Time: 15:45:22
(UTC+02:00)

AO-92 - Pass Details

Date: 03 August 2021
Orbit: 483 x 494 km, 97.4° (Epoch: 27 September)

Event Time Altitude Azimuth Distance (km) Brightness Sun altitude
Exits shadow 23:36:57 33° 234° (SW) 840 ? -20.5°
Maximum altitude 23:37:40 36° 262° (W) 777 ? -20.5°
Drops below altitude 10° 23:41:02 10° 331° (NNW) 1,677 ? -20.8°
Sets 23:43:13 0° 340° (NNW) 2,564 ? -20.9°
